[[{"header":{"parameterUnit":"m.s-1","parameterCategory":1,"la1":30.2991,"la2":30.254,"lo1":-89.0895,"lo2":-89.0444,"dy":0.0017,"dx":0.0017,"nx":28,"ny":28,"refTime":"2024-11-22T09:00:00:Z","depth":0,"parameterNumber":2,"parameterNumberName":"U-component_of_WINDS"},"data":[0,0,0,0,0,0,0,0,0,0,0,0,0,0,0,0,0,0,0,0,0,0,0,0,0,0,0,0,0,0,0,0,0,0,0,0,0,0,0,0,0,0,0,0,0,0,0,0,0,0,0,0,0,0,0,0,0,0,1.8967,1.8967,0,1.8965,1.8965,1.8965,1.8943,1.8942,1.8942,1.8941,1.8939,1.8939,1.894,0,0,0,0,0,0,0,0,0,0,0,0,0,1.8952,1.8953,1.8967,1.8967,1.8967,1.8965,1.8965,1.8965,1.8943,1.8942,1.8942,1.8941,1.8939,1.8939,1.894,0,0,0,0,0,0,0,0,0,0,0,0,0,1.8955,1.8953,1.8967,1.8956,1.8955,1.8965,1.8965,1.8965,1.8943,1.8942,1.8941,1.8941,1.8939,1.8939,1.894,1.8961,0,0,1.8942,1.8942,0,0,0,0,0,0,0,0,1.8955,1.8956,1.8958,1.8957,1.8956,1.8953,1.8959,1.8964,1.8943,1.8948,1.8941,1.894,1.8944,1.8945,1.8946,1.8961,1.8961,1.8942,1.8942,1.8943,1.8943,0,0,0,0,0,0,0,1.8955,1.8956,1.8966,1.8958,1.8956,1.8951,1.8951,1.896,1.8951,1.8947,1.8946,1.8946,1.8944,1.8945,1.8946,1.896,1.8942,1.8943,1.8943,1.8943,1.8993,1.8994,0,0,0,0,0,0,1.8957,1.8956,1.8966,1.8966,1.8953,1.8952,1.8951,1.8955,1.895,1.8949,1.8946,1.8945,1.8945,1.8945,1.8946,1.897,1.8943,1.8943,1.8944,1.8992,1.8993,1.8994,0,0,0,0,0,0,1.8956,1.8958,1.8966,1.8961,1.8961,1.8953,1.8957,1.8955,1.8957,1.895,1.8948,1.895,1.8944,1.8945,1.8957,1.897,1.8944,1.8944,1.8991,1.8993,1.8994,1.9019,0,0,0,0,0,0,1.8956,1.8958,1.8965,1.8961,1.8962,1.8978,1.8958,1.8956,1.8958,1.8956,1.8953,1.8951,1.8943,1.8956,1.8958,1.897,1.8945,1.899,1.8992,1.8993,1.9017,1.9021,1.9025,0,0,0,0,0,1.8955,1.8972,1.8966,1.8967,1.8971,1.8979,1.8979,1.897,1.8959,1.8967,1.8963,1.8951,1.8968,1.8958,1.896,1.8972,1.8989,1.8991,1.8993,1.9015,1.902,1.9025,0,0,0,0,0,0,1.8978,1.8971,1.8964,1.898,1.898,1.8975,1.8984,1.8975,1.8979,1.8976,1.8965,1.8964,1.8979,1.8977,1.8965,1.8992,1.8977,1.8979,1.8993,1.8998,1.9001,1.9001,1.8945,0,0,0,0,0,1.8985,1.8991,1.8985,1.9,1.9001,1.8993,1.8996,1.8989,1.8988,1.8988,1.8985,1.8985,1.899,1.8994,1.8998,1.9017,1.9016,1.9026,1.903,1.9033,1.9035,1.9046,1.905,1.9001,1.9001,1.9001,0,0,1.8998,1.8996,1.9001,1.9004,1.9004,1.9011,1.8993,1.9001,1.9007,1.8989,1.9001,1.8999,1.8998,1.9014,1.9021,1.9013,1.9049,1.9036,1.9039,1.9039,1.9048,1.9053,1.9057,1.9002,1.9002,1.9002,0,0,1.9028,1.9026,1.9039,1.9039,1.9038,1.9033,1.9036,1.9033,1.903,1.9042,1.903,1.9036,1.9046,1.9046,1.9047,1.9078,1.9068,1.908,1.91,1.911,1.9114,1.9117,1.9128,1.9132,1.9083,1.9083,1.9083,0,1.9045,1.9056,1.9046,1.9056,1.9058,1.9043,1.9056,1.9056,1.9057,1.9059,1.905,1.9062,1.9061,1.9077,1.9085,1.9086,1.909,1.908,1.9114,1.9117,1.912,1.9131,1.9135,1.9084,1.9084,1.9084,1.9084,0,1.9077,1.9085,1.9095,1.9097,1.91,1.9111,1.9104,1.9108,1.9101,1.9097,1.911,1.9108,1.9112,1.9116,1.9109,1.9131,1.9126,1.9116,1.91,1.9127,1.9136,1.914,1.9086,1.9086,1.9085,1.9085,0,0,1.9119,1.9116,1.912,1.9121,1.912,1.9126,1.9137,1.9141,1.9146,1.9147,1.9156,1.9165,1.9156,1.9158,1.9151,1.916,1.9185,1.9148,1.9148,1.9155,1.921,1.9217,1.9222,1.9178,1.9179,1.918,1.921,0,1.9147,1.9165,1.9158,1.9177,1.9184,1.9171,1.918,1.9181,1.9178,1.9184,1.918,1.9187,1.9174,1.9175,1.9184,1.918,1.9196,1.9178,1.9187,1.9187,1.9187,1.9227,1.9235,1.9264,1.9214,1.9214,1.9215,0,1.9182,1.9186,1.9206,1.9204,1.9207,1.9216,1.922,1.9225,1.9226,1.9223,1.9226,1.9217,1.9228,1.9213,1.9228,1.9216,1.9219,1.9218,1.9219,1.9219,1.9202,1.9228,1.9272,1.9277,1.9221,1.922,1.922,0,1.9211,1.9221,1.9234,1.9235,1.9234,1.924,1.924,1.924,1.9244,1.9247,1.9249,1.9254,1.9257,1.9261,1.9254,1.9244,1.927,1.9254,1.9268,1.9269,1.9274,1.9274,1.9319,1.9277,1.9277,1.9277,1.9277,0,1.9243,1.9256,1.9247,1.9255,1.9269,1.9261,1.9275,1.9273,1.9274,1.9281,1.9271,1.9278,1.9269,1.9276,1.9271,1.9284,1.9285,1.9283,1.9282,1.9284,1.9284,1.9286,1.9284,1.9278,1.9277,1.9277,1.9277,0,1.9277,1.9272,1.9285,1.9283,1.9283,1.9294,1.9292,1.93,1.9296,1.9307,1.9308,1.9303,1.9311,1.9305,1.9312,1.9309,1.9326,1.9322,1.9326,1.9325,1.9339,1.9338,1.9387,1.9393,1.9347,1.9348,1.9348,0,1.9298,1.9307,1.9307,1.9311,1.9312,1.9319,1.9323,1.9315,1.932,1.9322,1.933,1.9336,1.9341,1.9354,1.9351,1.9357,1.9352,1.9369,1.9353,1.9356,1.9353,1.9352,1.9353,1.9372,1.9373,1.9373,1.9374,0,1.9335,1.9332,1.9338,1.9343,1.9348,1.9352,1.9355,1.9359,1.9352,1.9357,1.9365,1.9369,1.9377,1.9384,1.9389,1.9389,1.938,1.9379,1.9382,1.9385,1.9387,1.9386,1.9335,1.9378,1.9377,1.9377,1.9377,1.9377,1.9363,1.9371,1.9372,1.9379,1.9381,1.9384,1.9391,1.9389,1.9396,1.9402,1.9397,1.9407,1.9408,1.9414,1.9415,1.9422,1.9415,1.9421,1.9422,1.9423,1.9425,1.9386,1.9423,1.9423,1.9423,1.9423,1.9423,0,1.9399,1.94,1.9407,1.9411,1.9417,1.9409,1.9412,1.9418,1.9426,1.9428,1.9434,1.9443,1.945,1.9448,1.9455,1.9461,1.9457,1.9463,1.9462,1.9462,1.9431,1.9427,1.9466,1.9466,1.9466,1.9466,1.9466,1.9466,1.9419,1.9433,1.943,1.9445,1.9445,1.9455,1.9457,1.946,1.9462,1.9473,1.9479,1.9478,1.9479,1.9485,1.9491,1.9491,1.9493,1.9501,1.9498,1.9469,1.9465,1.9461,1.9457,1.9501,1.9501,1.9529,1.9529,1.953]},{"header":{"parameterUnit":"m.s-1","parameterCategory":1,"la1":30.2991,"la2":30.254,"lo1":-89.0895,"lo2":-89.0444,"dy":0.0017,"dx":0.0017,"nx":28,"ny":28,"refTime":"2024-11-22T09:00:00:Z","depth":0,"parameterNumber":3,"parameterNumberName":"V-component_of_WINDS"},"data":[0,0,0,0,0,0,0,0,0,0,0,0,0,0,0,0,0,0,0,0,0,0,0,0,0,0,0,0,0,0,0,0,0,0,0,0,0,0,0,0,0,0,0,0,0,0,0,0,0,0,0,0,0,0,0,0,0,0,-3.3161,-3.3163,0,-3.3259,-3.326,-3.3261,-3.3282,-3.3282,-3.3281,-3.328,-3.3376,-3.3379,-3.3382,0,0,0,0,0,0,0,0,0,0,0,0,0,-3.2993,-3.2996,-3.3161,-3.3163,-3.3164,-3.3258,-3.326,-3.3261,-3.3283,-3.3282,-3.3281,-3.328,-3.3375,-3.3379,-3.3383,0,0,0,0,0,0,0,0,0,0,0,0,0,-3.3075,-3.2997,-3.3161,-3.3186,-3.3189,-3.3258,-3.326,-3.3261,-3.3283,-3.3282,-3.3281,-3.328,-3.3374,-3.3379,-3.3383,-3.3433,0,0,-3.3398,-3.34,0,0,0,0,0,0,0,0,-3.3071,-3.3081,-3.3181,-3.3184,-3.3188,-3.3258,-3.3235,-3.3319,-3.3283,-3.3247,-3.328,-3.3279,-3.3337,-3.3345,-3.3365,-3.3438,-3.3442,-3.3398,-3.3401,-3.3403,-3.3405,0,0,0,0,0,0,0,-3.3065,-3.3077,-3.32,-3.3183,-3.3187,-3.3192,-3.3202,-3.3251,-3.3297,-3.325,-3.3252,-3.3263,-3.3339,-3.3361,-3.3368,-3.3443,-3.3398,-3.3402,-3.3405,-3.3407,-3.3564,-3.3565,0,0,0,0,0,0,-3.3055,-3.3072,-3.3197,-3.3203,-3.3126,-3.3196,-3.3208,-3.3236,-3.3296,-3.3304,-3.3264,-3.3264,-3.3353,-3.3362,-3.3371,-3.3436,-3.3403,-3.3408,-3.341,-3.3563,-3.3564,-3.3566,0,0,0,0,0,0,-3.3051,-3.3066,-3.3193,-3.3138,-3.3155,-3.32,-3.3232,-3.3239,-3.3261,-3.3307,-3.3315,-3.3278,-3.3353,-3.3364,-3.3419,-3.3439,-3.341,-3.3414,-3.3561,-3.3563,-3.3565,-3.3564,0,0,0,0,0,0,-3.3046,-3.3065,-3.3084,-3.3139,-3.3158,-3.3239,-3.3233,-3.3241,-3.3269,-3.327,-3.3322,-3.333,-3.3353,-3.3411,-3.3423,-3.3445,-3.3418,-3.356,-3.3562,-3.3564,-3.3562,-3.3565,-3.3568,0,0,0,0,0,-3.304,-3.3078,-3.3085,-3.31,-3.3183,-3.324,-3.3251,-3.3278,-3.3271,-3.3291,-3.3321,-3.3328,-3.3435,-3.3417,-3.343,-3.3454,-3.3558,-3.3561,-3.3564,-3.3561,-3.3565,-3.3568,0,0,0,0,0,0,-3.3023,-3.3086,-3.3094,-3.3151,-3.319,-3.3244,-3.327,-3.3281,-3.3322,-3.3321,-3.3351,-3.3362,-3.3415,-3.344,-3.3418,-3.3507,-3.3496,-3.3502,-3.3489,-3.3493,-3.3496,-3.3489,-3.3422,0,0,0,0,0,-3.3027,-3.3069,-3.312,-3.3166,-3.3185,-3.3224,-3.325,-3.3268,-3.3309,-3.3325,-3.3359,-3.3398,-3.3441,-3.3468,-3.351,-3.3566,-3.3578,-3.3589,-3.3592,-3.3594,-3.3599,-3.3633,-3.3639,-3.3575,-3.3575,-3.3575,0,0,-3.3033,-3.3073,-3.3097,-3.3163,-3.3196,-3.3239,-3.3238,-3.3282,-3.3314,-3.3331,-3.3386,-3.3412,-3.3458,-3.3514,-3.354,-3.3536,-3.3619,-3.3598,-3.3599,-3.3603,-3.3636,-3.3642,-3.3648,-3.3577,-3.3577,-3.3577,0,0,-3.3067,-3.3101,-3.3143,-3.3177,-3.3227,-3.3253,-3.3263,-3.3316,-3.3335,-3.339,-3.3405,-3.3442,-3.3514,-3.3547,-3.3573,-3.3623,-3.3631,-3.3635,-3.3651,-3.3684,-3.3689,-3.3693,-3.3712,-3.3719,-3.364,-3.364,-3.364,0,-3.3069,-3.3134,-3.3163,-3.3209,-3.3238,-3.3258,-3.3302,-3.3332,-3.3392,-3.3412,-3.3407,-3.35,-3.3532,-3.3597,-3.3609,-3.3629,-3.3642,-3.3629,-3.3686,-3.3691,-3.3695,-3.3714,-3.3721,-3.364,-3.364,-3.364,-3.364,0,-3.3135,-3.318,-3.3208,-3.3269,-3.3301,-3.3345,-3.3381,-3.341,-3.3426,-3.3452,-3.3509,-3.3548,-3.3599,-3.3616,-3.363,-3.3684,-3.368,-3.368,-3.367,-3.3701,-3.3719,-3.3727,-3.364,-3.364,-3.364,-3.364,0,0,-3.316,-3.3238,-3.3248,-3.3277,-3.3335,-3.337,-3.3415,-3.3467,-3.3493,-3.3534,-3.3573,-3.3635,-3.3636,-3.3666,-3.3684,-3.3712,-3.3751,-3.3709,-3.3711,-3.3717,-3.3815,-3.3816,-3.3824,-3.3757,-3.3759,-3.376,-3.3812,0,-3.3202,-3.3285,-3.3314,-3.3383,-3.3426,-3.3446,-3.3486,-3.3525,-3.3552,-3.3592,-3.362,-3.3665,-3.3662,-3.368,-3.3709,-3.374,-3.3772,-3.3737,-3.3794,-3.3796,-3.3784,-3.3833,-3.3833,-3.3881,-3.3819,-3.382,-3.3821,0,-3.3262,-3.3308,-3.3381,-3.3436,-3.3455,-3.349,-3.3542,-3.358,-3.3625,-3.3643,-3.3677,-3.3694,-3.3742,-3.3729,-3.3797,-3.3773,-3.3798,-3.3817,-3.3819,-3.3826,-3.3811,-3.3843,-3.3896,-3.3904,-3.3832,-3.3831,-3.3831,0,-3.3276,-3.3354,-3.3409,-3.3433,-3.3498,-3.3523,-3.3551,-3.3596,-3.3626,-3.367,-3.369,-3.3739,-3.3765,-3.3802,-3.3832,-3.3819,-3.3897,-3.3886,-3.3914,-3.3913,-3.393,-3.3928,-3.3989,-3.3944,-3.3943,-3.3943,-3.3943,0,-3.3321,-3.3365,-3.3417,-3.3451,-3.3502,-3.3534,-3.3584,-3.3612,-3.3653,-3.3693,-3.3712,-3.3749,-3.3785,-3.3826,-3.3849,-3.3903,-3.3914,-3.393,-3.3936,-3.3929,-3.3928,-3.3947,-3.3945,-3.3945,-3.3945,-3.3944,-3.3944,0,-3.3344,-3.3381,-3.3442,-3.35,-3.3515,-3.3551,-3.36,-3.3633,-3.3661,-3.3712,-3.3725,-3.3769,-3.3819,-3.3852,-3.3915,-3.3931,-3.399,-3.3994,-3.3975,-3.3978,-3.4004,-3.4002,-3.4081,-3.4094,-3.4038,-3.4038,-3.4039,0,-3.3371,-3.3407,-3.3469,-3.3498,-3.3527,-3.3573,-3.3605,-3.3638,-3.3671,-3.3727,-3.3754,-3.3806,-3.385,-3.3929,-3.3966,-3.4015,-3.4021,-3.4045,-3.4028,-3.4022,-3.4024,-3.4022,-3.4026,-3.4048,-3.4049,-3.4049,-3.4049,0,-3.3416,-3.3433,-3.3479,-3.3532,-3.357,-3.3612,-3.3655,-3.3677,-3.3718,-3.3754,-3.3806,-3.384,-3.3907,-3.3958,-3.4011,-3.404,-3.4052,-3.4054,-3.4064,-3.4058,-3.4046,-3.4055,-3.3984,-3.4053,-3.4052,-3.4052,-3.4052,-3.4052,-3.3444,-3.3477,-3.3527,-3.3578,-3.3614,-3.3654,-3.369,-3.3724,-3.3769,-3.3827,-3.3843,-3.3899,-3.3945,-3.4018,-3.4048,-3.4091,-3.4089,-3.4101,-3.4105,-3.4108,-3.4109,-3.4039,-3.4101,-3.41,-3.41,-3.41,-3.41,0,-3.3491,-3.3525,-3.3572,-3.3632,-3.3673,-3.3682,-3.3731,-3.3764,-3.3813,-3.3856,-3.3899,-3.3961,-3.4012,-3.4053,-3.4106,-3.4133,-3.414,-3.4146,-3.4145,-3.4151,-3.4108,-3.4095,-3.4139,-3.4139,-3.4139,-3.4139,-3.4139,-3.4139,-3.3521,-3.3579,-3.3602,-3.3678,-3.3711,-3.3767,-3.3795,-3.3832,-3.3867,-3.3936,-3.3979,-3.4006,-3.4049,-3.4106,-3.4153,-3.4164,-3.4183,-3.4188,-3.42,-3.4158,-3.4154,-3.415,-3.4139,-3.4191,-3.4191,-3.4241,-3.4241,-3.4241]}]]